Location: Plainartige
(45.6866°N, 1.7993°E)
Time: 16:05:08
(UTC+00:00)

Tiros 1 - Pass Details

Date: 29 May 2022
Orbit: 629 x 663 km, 48.4° (Epoch: 05 July)

Event Time Altitude Azimuth Distance (km) Brightness Sun altitude
Exits shadow 23:16:29 31° 99° (E) 1,101 8.1 -22.1°
Drops below altitude 10° 23:19:15 10° 76° (ENE) 2,016 9.7 -22.2°
Sets 23:21:39 0° 70° (ENE) 2,931 10.7 -22.3°
